Weather in Il"yevka

Russia / Volgograd Oblast     48°38′50″N   43°38′08″E
temp.,
°C
wind,
m/s
gust,
m/s
humid.,
%
clouds,
%
prec.,
mm/h
press.,
hPa
HPBL,
m
5 august, thu
thu500:00+23nne495815 0.0 1015220
03:00+21nne386170 0.0 1016176
06:00+21nne365937 0.0 1017193
09:00+27ne4436100 0.0 10161184
12:00+29n323074 0.0 10162151
15:00+32nnw33220 0.0 10152896
18:00+31n3222100 0.0 10142630
21:00+25e353295 0.0 101472
6 august, fri
fri600:00+23e463343 0.0 101573
03:00+22e34368 0.0 101461
06:00+22e38386 0.0 1015218
09:00+30e66232 0.0 10141209
12:00+33e65195 0.0 10132164
15:00+35ese54165 0.0 10122534
18:00+33e651641 0.0 10112385
21:00+26e410255 0.0 1011153
7 august, sat
sat700:00+24e512289 0.0 1011219
03:00+24e615295 0.0 1012379
06:00+24ese61427100 0.0 1012428
09:00+30ese81118100 0.0 1011836
12:00+35ese7714100 0.0 10102032
15:00+36e6614100 0.0 10092422
18:00+36e5714100 0.0 10091868
21:00+29ene5122095 0.0 1009199
8 august, sun
sun800:00+28e5132236 0.0 1009237
03:00+25ese41127100 0.0 1010172
06:00+26e31029100 0.0 1010257
09:00+32se6919100 0.0 1010751
12:00+36se5715100 0.0 10091862
15:00+37ese771693 0.0 10082468
18:00+33ne6102390 0.0 1007364
21:00+31ne6122478 0.0 1007344
9 august, mon
mon900:00+27se34318 0.0 100648
03:00+24ssw3537100 0.0 100765
06:00+23sw4840100 0.0 1007213
09:00+31sw6826100 0.0 1007797
12:00+35sw892071 0.0 10071836
15:00+37wsw782055 0.0 10072709
18:00+34w782279 0.0 1007881
21:00+28wsw47324 0.0 100890